This demonstration page uses our WeatherBlox Daily Observations layout. Learn more.

Left ArrowRight Arrow

Hourly Observations for December 13, 2015

Temp ( °F °C ) Dew Point ( °F °C ) Humidity (%) Winds ( mph kmh ) Pressure ( in mb ) Visibility ( mi km ) Precip ( " mm )
12:11 am 00:11 Cloudy with Mist and Fog 46 7.8 43 6.1 89 89 W 3 6 30.03 1017 6 10 0.00 0.00
12:28 am 00:28 Cloudy 46 8 43 6 87 87 W 3 6 30.00 1016 9 14 0.00 0.00
12:53 am 00:53 Cloudy 46 7.8 43 6.1 89 89 W 6 9 30.00 1016 8 13 0.00 0.00
1:53 am 01:53 Cloudy 50 10 44 6.7 80 80 SSW 20 31 29.93 1014 10 16 0.00 0.00
2:53 am 02:53 Cloudy 51 10.6 45 7.2 80 80 SSW 18 30 29.89 1012 10 16 0.00 0.00
3:53 am 03:53 Cloudy 53 11.7 46 7.8 77 77 S 33 54 29.80 1009 10 16 0.00 0.00
4:31 am 04:31 Cloudy with Light Rain 52 11.1 47 8.3 83 83 S 41 67 29.77 1008 7 11 0.00 0.03
4:53 am 04:53 Cloudy with Light Rain 50 10 47 8.3 89 89 S 35 56 29.72 1006 4 6 0.00 0.03
5:53 am 05:53 Cloudy with Light Rain 51 10.6 47 8.3 86 86 S 38 61 29.66 1004 10 16 0.02 0.51
6:43 am 06:43 Cloudy with Light Rain 50 10 47 8.3 89 89 S 44 70 29.65 1004 5 8 0.03 0.76
6:53 am 06:53 Cloudy with Light Rain 49 9.4 47 8.3 93 93 S 33 54 29.60 1002 4 6 0.05 1.27
7:41 am 07:41 Cloudy with Strong Thunderstorms 49 9.4 46 7.8 90 90 SW 25 41 29.71 1006 3 4 0.18 4.57
7:45 am 07:45 Cloudy with Strong Thunderstorms 48 8.9 45 7.2 89 89 S 29 46 29.68 1005 2 2 0.25 6.35
7:49 am 07:49 Cloudy with Strong Thunderstorms 48 9 45 7 87 87 SSW 24 39 29.68 1005 2 3 0.28 7.11
7:53 am 07:53 Cloudy with Thunderstorms 49 9.4 45 7.2 86 86 SSW 23 37 29.64 1004 4 6 0.28 7.11
8:01 am 08:01 Cloudy with Rain 50 10 45 7.2 83 83 SSW 16 26 29.68 1005 5 8 0.03 0.76
8:53 am 08:53 Cloudy 48 8.9 43 6.1 83 83 WSW 10 17 29.69 1006 10 16 0.20 5.08
9:53 am 09:53 Mostly Cloudy 48 8.9 44 6.7 86 86 ESE 6 9 29.71 1006 10 16 0.00 0.00
10:53 am 10:53 Sunny 51 10.6 45 7.2 80 80 VRB 6 9 29.73 1007 10 16 0.00 0.00
11:53 am 11:53 Sunny 55 12.8 45 7.2 69 69 VRB 3 6 29.75 1007 10 16 0.00 0.00
12:53 pm 12:53 Sunny 54 12.2 35 1.7 49 49 WNW 10 17 29.76 1008 10 16 0.00 0.00
1:53 pm 13:53 Mostly Cloudy 53 11.7 33 0.6 47 47 NW 12 19 29.78 1008 10 16 0.00 0.00
2:53 pm 14:53 Sunny 52 11.1 31 -0.6 45 45 WNW 9 15 29.80 1009 10 16 0.00 0.00
3:53 pm 15:53 Sunny 53 11.7 31 -0.6 43 43 NW 8 13 29.83 1010 10 16 0.00 0.00
4:53 pm 16:53 Clear 50 10 30 -1.1 46 46 NW 10 17 29.85 1011 10 16 0.00 0.00
5:53 pm 17:53 Clear 49 9.4 30 -1.1 48 48 WNW 13 20 29.88 1012 10 16 0.00 0.00
6:53 pm 18:53 Clear 47 8.3 30 -1.1 52 52 WNW 6 9 29.91 1013 10 16 0.00 0.00
7:53 pm 19:53 Clear 46 7.8 31 -0.6 56 56 NW 7 11 29.93 1014 10 16 0.00 0.00
8:53 pm 20:53 Clear 47 8.3 31 -0.6 54 54 NNW 6 9 29.96 1015 10 16 0.00 0.00
9:53 pm 21:53 Clear 46 7.8 31 -0.6 56 56 N 6 9 29.98 1015 10 16 0.00 0.00
10:53 pm 22:53 Clear 40 4.4 33 0.6 77 77 Calm 30.00 1016 10 16 0.00 0.00
11:53 pm 23:53 Clear 37 2.8 32 0 82 82 Calm 30.02 1017 10 16 0.00 0.00

Powered by AerisWeather